Tracking 30696 objects as of 16-Jun-2025
HD Live streaming from Space Station
objects crossing your sky now

IRIDIUM 33 DEB

Track IRIDIUM 33 DEB now!
10-day predictions


NORAD ID: 35052
Int'l Code: 1997-051NY
Perigee: 764.3 km
Apogee: 778.8 km
Inclination: 86.3 °
Period: 100.1 minutes
Semi major axis: 7142 km
RCS: 0.0011 m2 (small)
Launch date: September 14, 1997
Source: United States (US)
Launch site: TYURATAM MISSILE AND SPACE COMPLEX (TTMTR)

Note: This is SATELLITE DEBRIS
Your satellite tracking list
Your tracking list is empty




NASA's NSSDC Master Catalog

Two Line Element Set (TLE):
1 35052U 97051NY  25166.25787581  .00000560  00000-0  17783-3 0  9990
2 35052  86.3299  97.8459 0010172 325.9598  34.0947 14.38215773846813
Source of the keplerian elements: AFSPC